[[{"header":{"parameterUnit":"m.s-1","parameterCategory":1,"la1":30.2991,"la2":30.254,"lo1":-89.0895,"lo2":-89.0444,"dy":0.0017,"dx":0.0017,"nx":28,"ny":28,"refTime":"2023-10-26T03:00:00:Z","depth":0,"parameterNumber":2,"parameterNumberName":"U-component_of_WINDS"},"data":[0,0,0,0,0,0,0,0,0,0,0,0,0,0,0,0,0,0,0,0,0,0,0,0,0,0,0,0,0,0,0,0,0,0,0,0,0,0,0,0,0,0,0,0,0,0,0,0,0,0,0,0,0,0,0,0,0,0,-5.2825,-5.2827,0,-5.2931,-5.2932,-5.2934,-5.2901,-5.2899,-5.2897,-5.2895,-5.3004,-5.3008,-5.3013,0,0,0,0,0,0,0,0,0,0,0,0,0,-5.2598,-5.2602,-5.2825,-5.2827,-5.2828,-5.2931,-5.2932,-5.2934,-5.2902,-5.2899,-5.2896,-5.2894,-5.3002,-5.3008,-5.3014,0,0,0,0,0,0,0,0,0,0,0,0,0,-5.2699,-5.2603,-5.2825,-5.2824,-5.2825,-5.2931,-5.2932,-5.2934,-5.2902,-5.2899,-5.2896,-5.2893,-5.3,-5.3007,-5.3015,-5.3127,0,0,-5.3037,-5.304,0,0,0,0,0,0,0,0,-5.2694,-5.2708,-5.2823,-5.2825,-5.2826,-5.29,-5.2892,-5.2999,-5.2903,-5.2873,-5.2895,-5.2891,-5.2972,-5.2981,-5.3008,-5.3132,-5.3137,-5.3038,-5.3042,-5.3046,-5.3048,0,0,0,0,0,0,0,-5.2687,-5.2703,-5.2867,-5.2825,-5.2827,-5.2819,-5.283,-5.2912,-5.294,-5.2876,-5.2873,-5.2886,-5.2972,-5.3001,-5.3011,-5.3138,-5.3038,-5.3044,-5.3049,-5.3052,-5.3361,-5.3364,0,0,0,0,0,0,-5.2678,-5.2697,-5.2864,-5.287,-5.275,-5.2826,-5.2838,-5.2879,-5.2939,-5.2945,-5.2889,-5.2884,-5.299,-5.3002,-5.3014,-5.3149,-5.3046,-5.3053,-5.3057,-5.3357,-5.3362,-5.3366,0,0,0,0,0,0,-5.2674,-5.2694,-5.286,-5.2783,-5.2804,-5.2834,-5.288,-5.2883,-5.2912,-5.2949,-5.2954,-5.2914,-5.2988,-5.3004,-5.3099,-5.3153,-5.3056,-5.3063,-5.3353,-5.3358,-5.3364,-5.3421,0,0,0,0,0,0,-5.2667,-5.2692,-5.2734,-5.2785,-5.2808,-5.2942,-5.2883,-5.2888,-5.2925,-5.292,-5.2974,-5.2979,-5.2987,-5.3089,-5.3107,-5.3161,-5.3068,-5.3348,-5.3355,-5.3362,-5.3414,-5.3427,-5.3439,0,0,0,0,0,-5.2659,-5.2746,-5.2737,-5.2757,-5.2862,-5.2945,-5.2959,-5.2965,-5.293,-5.2973,-5.2997,-5.2978,-5.3145,-5.3099,-5.3119,-5.3176,-5.3344,-5.3353,-5.3361,-5.3408,-5.3425,-5.3439,0,0,0,0,0,0,-5.2701,-5.2752,-5.2742,-5.2848,-5.2893,-5.294,-5.2994,-5.2982,-5.3038,-5.3031,-5.3037,-5.305,-5.3147,-5.3172,-5.3119,-5.3289,-5.324,-5.3252,-5.3268,-5.3284,-5.3297,-5.3287,-5.3075,0,0,0,0,0,-5.2722,-5.2786,-5.2828,-5.2917,-5.294,-5.2964,-5.3,-5.3002,-5.3048,-5.3066,-5.3097,-5.3143,-5.3206,-5.3247,-5.3307,-5.3419,-5.343,-5.3469,-5.3481,-5.3492,-5.3501,-5.3563,-5.358,-5.3393,-5.3393,-5.3393,0,0,-5.2767,-5.2803,-5.2843,-5.2926,-5.2961,-5.3026,-5.2979,-5.305,-5.3099,-5.3077,-5.3168,-5.3194,-5.3246,-5.335,-5.3397,-5.3373,-5.3556,-5.3502,-5.351,-5.3515,-5.3573,-5.3591,-5.3606,-5.3399,-5.3398,-5.3397,0,0,-5.2882,-5.2916,-5.2994,-5.303,-5.3083,-5.3099,-5.3118,-5.3168,-5.3183,-5.3275,-5.326,-5.332,-5.3428,-5.3465,-5.3499,-5.3632,-5.3616,-5.3651,-5.3715,-5.3775,-5.3789,-5.3802,-5.3848,-5.3865,-5.3662,-5.3662,-5.3662,0,-5.293,-5.3028,-5.3035,-5.3108,-5.3145,-5.313,-5.3209,-5.3244,-5.3315,-5.3341,-5.3314,-5.345,-5.3484,-5.3597,-5.3629,-5.3658,-5.3679,-5.3643,-5.3787,-5.38,-5.3812,-5.3856,-5.3873,-5.3666,-5.3665,-5.3665,-5.3665,0,-5.3085,-5.3153,-5.321,-5.3278,-5.3322,-5.3398,-5.3418,-5.3462,-5.3461,-5.348,-5.3575,-5.3616,-5.3684,-5.3712,-5.3711,-5.3825,-5.3808,-5.3785,-5.3734,-5.3833,-5.3875,-5.3892,-5.3671,-5.367,-5.3669,-5.3668,0,0,-5.3224,-5.3298,-5.3318,-5.3349,-5.3408,-5.3462,-5.3538,-5.3605,-5.3642,-5.3693,-5.3756,-5.385,-5.3828,-5.3867,-5.3871,-5.3924,-5.4025,-5.3893,-5.3894,-5.3914,-5.4152,-5.4168,-5.4187,-5.4017,-5.402,-5.4023,-5.4147,0,-5.3342,-5.3474,-5.3485,-5.3604,-5.3667,-5.3656,-5.3722,-5.3766,-5.3787,-5.3845,-5.3868,-5.3933,-5.3901,-5.3924,-5.3976,-5.4002,-5.4073,-5.3993,-5.4075,-5.4078,-5.4059,-5.4209,-5.4226,-5.4341,-5.4164,-5.4167,-5.4169,0,-5.3496,-5.3551,-5.3676,-5.3728,-5.3755,-5.3814,-5.3877,-5.3932,-5.3983,-5.3995,-5.4039,-5.4037,-5.4116,-5.4066,-5.4175,-5.4121,-5.4156,-5.4175,-5.4179,-5.4184,-5.4127,-5.4216,-5.4378,-5.4394,-5.4194,-5.4192,-5.419,0,-5.3582,-5.3688,-5.3777,-5.3805,-5.3867,-5.3909,-5.3938,-5.3985,-5.4025,-5.4081,-5.4107,-5.4172,-5.4207,-5.4257,-5.4273,-5.4236,-5.4382,-5.4333,-5.4393,-5.4393,-5.4421,-5.4419,-5.4588,-5.4449,-5.4449,-5.4448,-5.4448,0,-5.3711,-5.3788,-5.3817,-5.3871,-5.3958,-5.3971,-5.4056,-5.4082,-5.4125,-5.4185,-5.4181,-5.4237,-5.4256,-5.4316,-5.433,-5.4418,-5.4434,-5.4446,-5.4448,-5.4445,-5.4443,-5.4465,-5.4456,-5.4453,-5.4452,-5.4451,-5.445,0,-5.382,-5.3843,-5.3939,-5.3992,-5.4007,-5.4068,-5.4113,-5.4166,-5.4188,-5.4264,-5.4282,-5.4316,-5.4387,-5.4409,-5.4494,-5.4503,-5.4606,-5.4602,-5.4588,-5.4588,-5.4645,-5.4639,-5.4833,-5.4859,-5.4705,-5.4706,-5.4707,0,-5.3899,-5.3958,-5.4017,-5.4057,-5.4087,-5.4151,-5.4192,-5.4209,-5.4252,-5.4315,-5.4361,-5.4431,-5.4487,-5.4602,-5.4634,-5.47,-5.4696,-5.476,-5.4706,-5.4701,-5.4695,-5.469,-5.4696,-5.4769,-5.477,-5.4772,-5.4773,0,-5.4036,-5.4045,-5.4104,-5.4168,-5.4217,-5.4269,-5.4318,-5.4351,-5.4375,-5.4424,-5.4496,-5.454,-5.4628,-5.4698,-5.4766,-5.4796,-5.4789,-5.4791,-5.4807,-5.4803,-5.4791,-5.4797,-5.4613,-5.4785,-5.4784,-5.4783,-5.4782,-5.4782,-5.4132,-5.4183,-5.4233,-5.43,-5.4339,-5.4386,-5.4438,-5.4467,-5.4527,-5.4599,-5.4606,-5.4684,-5.4736,-5.4826,-5.486,-5.4922,-5.4903,-5.4928,-5.4934,-5.4939,-5.4943,-5.4784,-5.4935,-5.4934,-5.4934,-5.4934,-5.4934,0,-5.4267,-5.4299,-5.436,-5.4429,-5.4482,-5.4472,-5.4527,-5.4571,-5.464,-5.4689,-5.4745,-5.4829,-5.4898,-5.4937,-5.5005,-5.5047,-5.5046,-5.5065,-5.506,-5.5067,-5.4956,-5.4934,-5.5065,-5.5065,-5.5065,-5.5065,-5.5065,-5.5065,-5.4343,-5.443,-5.4445,-5.4552,-5.4585,-5.466,-5.4693,-5.4736,-5.4775,-5.4868,-5.4925,-5.4951,-5.4996,-5.5068,-5.5131,-5.5141,-5.5166,-5.5186,-5.5194,-5.5089,-5.5075,-5.5062,-5.5041,-5.5192,-5.5192,-5.5299,-5.53,-5.5301]},{"header":{"parameterUnit":"m.s-1","parameterCategory":1,"la1":30.2991,"la2":30.254,"lo1":-89.0895,"lo2":-89.0444,"dy":0.0017,"dx":0.0017,"nx":28,"ny":28,"refTime":"2023-10-26T03:00:00:Z","depth":0,"parameterNumber":3,"parameterNumberName":"V-component_of_WINDS"},"data":[0,0,0,0,0,0,0,0,0,0,0,0,0,0,0,0,0,0,0,0,0,0,0,0,0,0,0,0,0,0,0,0,0,0,0,0,0,0,0,0,0,0,0,0,0,0,0,0,0,0,0,0,0,0,0,0,0,0,1.7966,1.7967,0,1.806,1.8061,1.8062,1.8072,1.8071,1.807,1.807,1.8165,1.8169,1.8172,0,0,0,0,0,0,0,0,0,0,0,0,0,1.7796,1.7799,1.7966,1.7967,1.7968,1.806,1.8061,1.8062,1.8073,1.8071,1.807,1.8069,1.8164,1.8168,1.8172,0,0,0,0,0,0,0,0,0,0,0,0,0,1.7878,1.78,1.7966,1.7984,1.7987,1.806,1.8061,1.8063,1.8073,1.8071,1.807,1.8069,1.8163,1.8168,1.8173,1.8233,0,0,1.8189,1.8191,0,0,0,0,0,0,0,0,1.7873,1.7884,1.798,1.7983,1.7986,1.8053,1.8036,1.812,1.8073,1.804,1.807,1.8068,1.8129,1.8137,1.8158,1.8238,1.8242,1.8189,1.8192,1.8195,1.8196,0,0,0,0,0,0,0,1.7867,1.788,1.8003,1.7982,1.7985,1.7988,1.7998,1.8052,1.8091,1.8043,1.8044,1.8055,1.813,1.8153,1.816,1.8243,1.8189,1.8194,1.8197,1.8199,1.8381,1.8383,0,0,0,0,0,0,1.7858,1.7875,1.8,1.8006,1.7925,1.7993,1.8004,1.8033,1.8091,1.8098,1.8056,1.8055,1.8145,1.8154,1.8163,1.8241,1.8195,1.8199,1.8202,1.838,1.8382,1.8384,0,0,0,0,0,0,1.7855,1.7869,1.7996,1.7941,1.7957,1.7997,1.803,1.8036,1.8058,1.8101,1.8108,1.8072,1.8144,1.8156,1.8217,1.8244,1.8202,1.8206,1.8378,1.838,1.8383,1.8394,0,0,0,0,0,0,1.785,1.7868,1.7891,1.7941,1.796,1.8048,1.8031,1.8038,1.8067,1.8067,1.8117,1.8124,1.8144,1.8209,1.8222,1.8251,1.821,1.8375,1.8379,1.8382,1.8392,1.8397,1.8401,0,0,0,0,0,1.7844,1.789,1.7892,1.7907,1.799,1.8049,1.806,1.8082,1.8069,1.8093,1.8121,1.8123,1.8239,1.8215,1.823,1.826,1.8374,1.8378,1.8382,1.8389,1.8396,1.8401,0,0,0,0,0,0,1.784,1.7896,1.79,1.7963,1.8002,1.8051,1.8082,1.8087,1.813,1.8127,1.8152,1.8163,1.8224,1.8248,1.822,1.8324,1.8305,1.8312,1.8306,1.8312,1.8317,1.8311,1.8215,0,0,0,0,0,1.7847,1.7891,1.7937,1.7989,1.8008,1.8042,1.8068,1.8082,1.8122,1.8138,1.817,1.821,1.8255,1.8285,1.8329,1.8394,1.8407,1.8423,1.8428,1.8432,1.8438,1.8478,1.8486,1.8397,1.8397,1.8397,0,0,1.7862,1.7898,1.7923,1.7989,1.8021,1.8066,1.8055,1.8103,1.8137,1.8145,1.8206,1.8231,1.8276,1.834,1.837,1.8362,1.8466,1.8437,1.8439,1.8444,1.8483,1.8491,1.8499,1.8399,1.8399,1.8398,0,0,1.7912,1.7942,1.7991,1.8022,1.807,1.8093,1.8104,1.8153,1.817,1.8231,1.8239,1.828,1.8357,1.839,1.8417,1.8482,1.8487,1.8496,1.8522,1.8561,1.8568,1.8574,1.86,1.8609,1.8501,1.8502,1.8502,0,1.7924,1.7993,1.8014,1.8063,1.8093,1.8103,1.8153,1.8182,1.8242,1.8263,1.8252,1.8352,1.8383,1.8457,1.8473,1.8493,1.8509,1.8491,1.8565,1.8572,1.8578,1.8603,1.8613,1.8503,1.8502,1.8502,1.8502,0,1.8007,1.8055,1.8088,1.8147,1.818,1.8228,1.8258,1.8289,1.83,1.8323,1.8386,1.8424,1.8478,1.8495,1.8505,1.8572,1.8566,1.856,1.8542,1.8587,1.8612,1.8621,1.8504,1.8504,1.8503,1.8503,0,0,1.8059,1.813,1.8142,1.817,1.8224,1.8262,1.8311,1.8364,1.8392,1.8432,1.8476,1.8542,1.8538,1.8569,1.8583,1.8616,1.8669,1.8607,1.8608,1.862,1.8748,1.8754,1.8764,1.8671,1.8673,1.8675,1.8745,0,1.8118,1.8208,1.8229,1.8306,1.8352,1.8363,1.8407,1.8445,1.8469,1.8511,1.8537,1.8585,1.8574,1.8593,1.8626,1.8655,1.8695,1.865,1.8714,1.8716,1.8706,1.8777,1.8783,1.8847,1.8754,1.8756,1.8757,0,1.8199,1.8243,1.8325,1.8376,1.8396,1.8435,1.8486,1.8526,1.857,1.8585,1.8621,1.8632,1.8685,1.8664,1.8739,1.8708,1.8735,1.8754,1.8757,1.8766,1.8741,1.879,1.8868,1.8879,1.8771,1.877,1.8769,0,1.8233,1.8312,1.8373,1.8396,1.8455,1.8483,1.8509,1.8552,1.8583,1.8628,1.8649,1.8698,1.8726,1.8765,1.879,1.8771,1.8865,1.8844,1.8881,1.8881,1.8902,1.8901,1.8988,1.8915,1.8914,1.8914,1.8914,0,1.8298,1.8349,1.8389,1.8426,1.8484,1.8508,1.8565,1.8591,1.8629,1.8673,1.8683,1.8724,1.8753,1.8798,1.8818,1.8879,1.8891,1.8906,1.8911,1.8907,1.8905,1.8927,1.8924,1.8917,1.8916,1.8916,1.8915,0,1.8347,1.8375,1.8442,1.8493,1.8508,1.8548,1.8592,1.863,1.8653,1.8709,1.8723,1.876,1.8814,1.8842,1.8909,1.8922,1.8992,1.8993,1.8978,1.8981,1.9017,1.9014,1.9124,1.914,1.9053,1.9053,1.9054,0,1.8388,1.8428,1.8484,1.8514,1.8541,1.8589,1.8621,1.8646,1.868,1.8734,1.8766,1.882,1.8865,1.8951,1.8984,1.9036,1.9041,1.9075,1.9048,1.9044,1.9045,1.9044,1.9049,1.9081,1.9082,1.9082,1.9083,0,1.846,1.8473,1.8519,1.8571,1.861,1.8651,1.8693,1.8717,1.8749,1.8786,1.8842,1.8877,1.8946,1.9001,1.9055,1.9082,1.9089,1.9091,1.9102,1.91,1.9091,1.91,1.8994,1.9089,1.9088,1.9088,1.9087,1.9087,1.8509,1.8546,1.8592,1.8644,1.8677,1.8716,1.8755,1.8784,1.8831,1.889,1.8901,1.8961,1.9006,1.908,1.9109,1.9156,1.9149,1.9165,1.917,1.9175,1.9178,1.9081,1.9166,1.9166,1.9166,1.9165,1.9165,0,1.8584,1.8615,1.8662,1.8721,1.8762,1.8763,1.881,1.8844,1.8897,1.8938,1.8983,1.9048,1.9101,1.9139,1.9194,1.9225,1.923,1.9239,1.9239,1.9246,1.918,1.9165,1.9235,1.9235,1.9235,1.9235,1.9235,1.9235,1.8629,1.8693,1.8711,1.8792,1.8821,1.888,1.8907,1.8944,1.8977,1.9049,1.9094,1.9118,1.9159,1.9217,1.9267,1.9277,1.9298,1.9308,1.9319,1.9257,1.925,1.9243,1.923,1.9312,1.9312,1.9381,1.9382,1.9382]}]]